This is the latest recevied weather packets stored in our database for station/object K0SDS. If no packets are shown the sender has not sent any weather packets the latest 10 day(s).
| Time | Temp. | Humidity | Pressure | Rain* | Wind** | Luminosity | Snow |
|---|---|---|---|---|---|---|---|
| 1778067178 | 6.11° C | 89% | 1016.2 hPa | 0 mm | - | 7 W/m² | - |
| 1778066875 | 6.67° C | 89% | 1016.1 hPa | 0 mm | - | 3 W/m² | - |
| 1778066572 | 6.67° C | 87% | 1015.8 hPa | 0 mm | - | 2 W/m² | - |
| 1778066269 | 6.67° C | 87% | 1016.1 hPa | 0 mm | - | 0 W/m² | - |
| 1778065967 | 7.22° C | 85% | 1016.1 hPa | 0 mm | - | 0 W/m² | - |
| 1778065664 | 7.22° C | 83% | 1016.1 hPa | 0 mm | - | 0 W/m² | - |
| 1778065362 | 7.78° C | 81% | 1016.1 hPa | 0 mm | - | 0 W/m² | - |
| 1778065058 | 7.78° C | 77% | 1015.8 hPa | 0 mm | - | 0 W/m² | - |
| 1778064755 | 7.78° C | 76% | 1015.8 hPa | 0 mm | - | 0 W/m² | - |
| 1778064453 | 7.78° C | 76% | 1016.1 hPa | 0 mm | - | 0 W/m² | - |
| 1778064150 | 8.33° C | 80% | 1016.4 hPa | 0 mm | - | 0 W/m² | - |
| 1778063847 | 8.33° C | 80% | 1016.5 hPa | 0 mm | - | 0 W/m² | - |
| 1778063545 | 8.33° C | 83% | 1016.8 hPa | 0 mm | - | 0 W/m² | - |
| 1778063242 | 8.33° C | 82% | 1016.7 hPa | 0 mm | - | 0 W/m² | - |
| 1778062940 | 7.78° C | 82% | 1016.8 hPa | 0 mm | - | 0 W/m² | - |
| 1778062636 | 7.78° C | 86% | 1016.8 hPa | 0 mm | - | 0 W/m² | - |
| 1778062333 | 7.78° C | 89% | 1017 hPa | 0 mm | - | 0 W/m² | - |
| 1778062031 | 7.78° C | 89% | 1016.9 hPa | 0 mm | - | 0 W/m² | - |
| 1778061729 | 7.78° C | 90% | 1017 hPa | 0 mm | - | 0 W/m² | - |
| 1778061427 | 7.78° C | 90% | 1016.7 hPa | 0 mm | - | 0 W/m² | - |
| 1778061124 | 7.78° C | 91% | 1016.8 hPa | 0 mm | - | 0 W/m² | - |
| 1778060821 | 7.78° C | 91% | 1016.8 hPa | 0 mm | - | 0 W/m² | - |
| 1778060519 | 7.78° C | 92% | 1016.8 hPa | 0 mm | - | 0 W/m² | - |
| 1778060218 | 7.78° C | 92% | 1016.2 hPa | 0 mm | - | 0 W/m² | - |
| 1778059914 | 7.78° C | 92% | 1016.3 hPa | 0 mm | - | 0 W/m² | - |
* Rain latest hour (hover to see other rain measurements)
** Current wind speed in m/s (hover to see current wind gust speed)